Location: ???????
(56.2167°N, 38.0500°E)
Time: 04:51:25
(UTC+00:00)

Cosmos 1805 - Pass Details

Date: 19 May 2025
Orbit: 448 x 452 km, 82.5° (Epoch: 19 June)

Event Time Altitude Azimuth Distance (km) Brightness Sun altitude
Rises 19:09:32 0° 349° (N) 2,473 8.2 -8.7°
Reaches altitude 10° 19:11:38 10° 352° (N) 1,594 6.9 -8.9°
Maximum altitude 19:15:05 66° 76° (ENE) 496 3.0 -9.1°
Enters shadow 19:18:04 13° 158° (SSE) 1,392 4.7 -9.3°
